Weather History for Avoca, PA

Change the Weather History Date:

Saturday, March 2, 2013

  Actual Average Record
Temperature  
Mean Temperature 28 °F 32 °F  
Max Temperature 30 °F 41 °F 68 °F (1991)
Min Temperature 25 °F 24 °F 3 °F (1980)
Degree Days  
Heating Degree Days 37 33  
Month to date heating degree days 69 66  
Since 1 July heating degree days 4293 4672  
Cooling Degree Days 0 0  
Month to date cooling degree days 0 0  
Year to date cooling degree days 0 0  
Moisture  
Dew Point 20 °F    
Average Humidity 75    
Maximum Humidity 81    
Minimum Humidity 68    
Precipitation  
Precipitation T in 0.07 in 1.10 in (1914)
Month to date precipitation T 0.14  
Year to date precipitation 3.33 4.54  
Sea Level Pressure  
Sea Level Pressure 29.81 in    
Wind  
Wind Speed 10 mph (NW)    
Max Wind Speed 18 mph    
Max Gust Speed 24 mph    
Visibility 8 miles    
Events Snow    
T = Trace of Precipitation, MM = Missing Value Source: NWS Daily Summary

Daily Weather History Graph

Daily Weather History Graph

Search for Another Location

Airport:

Trip Planner

Search our weather history database for the weather conditions in past years. The results will help you decide how hot, cold, wet, or windy it might be!

Date:

Astronomy

Mar. 02, 2013 Rise Set
Actual Time 6:35 AM EST 5:55 PM EST
Civil Twilight 6:07 AM EST 6:22 PM EST
Nautical Twilight 5:35 AM EST 6:54 PM EST
Astronomical Twilight 5:03 AM EST 7:26 PM EST
Moon 11:36 PM EST (3/2) 8:58 AM EST (3/2)
Length of Visible Light 12h 15m
Length of Day
11h 19m
Waning Gibbous, 74% of the Moon is Illuminated
Mar 2
Waning Gibbous
Mar 4
Last Quarter
Mar 11
New
Mar 19
First Quarter
Mar 27
Full

Hourly Weather History & Observations

Time (EST) Temp. Windchill Dew Point Humidity Pressure Visibility Wind Dir Wind Speed Gust Speed Precip Events Conditions
12:54 AM 28.0 °F 22.8 °F 19.9 °F 72% 29.84 in 10.0 mi WNW 4.6 mph - N/A   Overcast
1:54 AM 28.0 °F 21.7 °F 19.9 °F 72% 29.83 in 10.0 mi NW 5.8 mph - N/A   Overcast
2:54 AM 28.0 °F 19.3 °F 21.0 °F 75% 29.82 in 8.0 mi NNW 9.2 mph - N/A   Overcast
3:54 AM 27.0 °F 18.7 °F 21.0 °F 78% 29.82 in 8.0 mi NW 8.1 mph - N/A   Overcast
4:54 AM 27.0 °F 18.0 °F 21.0 °F 78% 29.83 in 9.0 mi NW 9.2 mph 19.6 mph N/A   Overcast
5:54 AM 27.0 °F 19.5 °F 21.0 °F 78% 29.83 in 8.0 mi NW 6.9 mph - N/A   Overcast
6:54 AM 27.0 °F 20.5 °F 21.0 °F 78% 29.83 in 9.0 mi Variable 5.8 mph - N/A   Overcast
7:54 AM 27.0 °F 20.5 °F 21.0 °F 78% 29.83 in 3.0 mi West 5.8 mph - 0.00 in Snow Light Snow
8:54 AM 28.0 °F 16.5 °F 21.0 °F 75% 29.83 in 6.0 mi NNE 15.0 mph 23.0 mph 0.00 in Snow Light Snow
9:54 AM 28.0 °F 17.0 °F 19.9 °F 72% 29.83 in 9.0 mi NNW 13.8 mph 20.7 mph 0.00 in   Overcast
10:54 AM 28.0 °F 21.7 °F 19.0 °F 69% 29.82 in 9.0 mi NW 5.8 mph 18.4 mph 0.00 in   Overcast
11:54 AM 28.0 °F 19.3 °F 19.0 °F 69% 29.82 in 9.0 mi NW 9.2 mph - N/A   Overcast
12:54 PM 28.9 °F 17.3 °F 19.0 °F 67% 29.79 in 10.0 mi NNW 16.1 mph 23.0 mph N/A   Overcast
1:54 PM 28.9 °F 19.2 °F 19.9 °F 69% 29.79 in 6.0 mi NW 11.5 mph 17.3 mph 0.00 in Snow Light Snow
2:54 PM 30.0 °F 20.5 °F 19.9 °F 66% 29.78 in 10.0 mi NW 11.5 mph 19.6 mph 0.00 in   Overcast
3:54 PM 30.0 °F 21.1 °F 21.0 °F 69% 29.77 in 9.0 mi NW 10.4 mph - 0.00 in   Overcast
4:54 PM 28.9 °F 19.2 °F 19.0 °F 67% 29.78 in 10.0 mi NW 11.5 mph 19.6 mph N/A   Overcast
5:32 PM 28.4 °F 16.6 °F 19.4 °F 69% 29.76 in 10.0 mi NNW 16.1 mph - N/A   Overcast
5:54 PM 28.0 °F 17.0 °F 19.0 °F 69% 29.80 in 10.0 mi NNW 13.8 mph 20.7 mph N/A   Overcast
6:18 PM 28.4 °F 18.0 °F 19.4 °F 69% 29.77 in 9.0 mi NNW 12.7 mph 21.9 mph N/A   Overcast
6:54 PM 27.0 °F 16.1 °F 19.0 °F 72% 29.81 in 7.0 mi NNW 12.7 mph 19.6 mph 0.00 in Snow Light Snow
7:46 PM 26.6 °F 18.2 °F 19.4 °F 74% 29.79 in 8.0 mi NW 8.1 mph - 0.00 in   Overcast
7:54 PM 26.1 °F 17.6 °F 19.0 °F 75% 29.81 in 6.0 mi NW 8.1 mph - 0.00 in Snow Light Snow
8:19 PM 26.6 °F 17.5 °F 19.4 °F 74% 29.79 in 6.0 mi NNW 9.2 mph - 0.00 in Snow Light Snow
8:54 PM 26.1 °F 17.6 °F 19.0 °F 75% 29.82 in 8.0 mi NW 8.1 mph - 0.00 in   Overcast
9:54 PM 26.1 °F 16.2 °F 18.0 °F 71% 29.81 in 7.0 mi NNW 10.4 mph 21.9 mph 0.00 in   Overcast
10:54 PM 25.0 °F 14.8 °F 16.0 °F 69% 29.81 in 10.0 mi NNW 10.4 mph 21.9 mph 0.00 in   Overcast
11:54 PM 25.0 °F 15.5 °F 17.1 °F 72% 29.81 in 10.0 mi NNW 9.2 mph 18.4 mph N/A   Overcast